Location: Arpaise
(41.0333°N, 14.7333°E)
Time: 08:10:31
(UTC+00:00)

Cosmos 1269 Rocket - Pass Details

Date: 05 July 2020
Orbit: 773 x 778 km, 74.1° (Epoch: 05 August)

Event Time Altitude Azimuth Distance (km) Brightness Sun altitude
Exits shadow 23:40:03 49° 110° (ESE) 989 4.4 -25.8°
Maximum altitude 23:40:13 50° 104° (ESE) 987 4.4 -25.8°
Drops below altitude 10° 23:45:17 10° 30° (NNE) 2,327 7.4 -25.7°
Sets 23:47:44 0° 25° (NNE) 3,258 8.5 -25.6°
